Location: Haliburton Scout Reserve
(45.0900°N, 78.3200°W)
Time: 00:26:48
(UTC-04:00)

FO-29 - Visible Passes

Search period start: 31 May 2023 00:00
Search period end: 10 June 2023 00:00
Orbit: 799 x 1322 km, 98.5° (Epoch: 30 May)

Date Brightness Start Highest point End Pass type
(mag) Time Alt. Az. Time Alt. Az. Time Alt. Az.
31 May 11.8 04:33:24 10° NE 04:36:58 18° E 04:40:41 10° SE visible
02 Jun 11.8 04:28:21 10° NE 04:31:45 17° E 04:35:18 10° SE visible
04 Jun 11.9 04:23:17 10° NE 04:26:32 16° E 04:29:55 10° SE visible
06 Jun 11.9 04:18:16 10° NE 04:21:20 15° E 04:24:30 10° ESE visible
08 Jun 12.0 04:13:16 10° ENE 04:16:07 14° E 04:19:05 10° ESE visible
